sat.trackr.live / text

‹ back to catalog

STARLINK-11742 [DTC]

NORAD 64377 · 2025-127H

PAYLOAD ACTIVE UNKNOWN

§ Identity

Operator
Country
US
Launch date
2025-06-13
Launch site
AFETR
Launch vehicle
Mass (kg)
RCS (m²)

Purposes: comms

External: N2YO · Heavens-Above · Gunter

§ Orbital elements

Epoch: 2026-09-20T00:00:02.999808Z

Period
91.67 min
Inclination
43.0007°
Eccentricity
0.0001569
Mean motion
15.70923911 rev/d
Perigee alt
355.2 km
Apogee alt
357.3 km
Semi-major
6,734.4 km
B*
-1.3947e-3
RAAN
353.5033°
Arg perigee
262.5093°
Mean anomaly
327.8487°
Rev number
589

§ Raw data

STARLINK-11742 [DTC]1 64377U 25127H   26263.00003472 -.00176292  00000+0 -13947-2 0  99932 64377  43.0007 353.5033 0001569 262.5093 327.8487 15.70923911  5892

JSON: /api/v1/satellites/64377 · /tle

For live sub-satellite position, see the globe view (requires WebGL).

§ Visibility from observer

Set your observer location to see the next 7 days of passes ≥ 10°. The values pass through the URL so the page stays shareable.

No JS? Fill the form by hand. The geolocation button needs JavaScript.